Weather History for Toronto Pearson, ON

Change the Weather History Date:

Wednesday, October 23, 2013

  Actual Average Record
Temperature  
Mean Temperature 42 °F -  
Max Temperature 48 °F 48 °F 68 °F (2001)
Min Temperature 33 °F 33 °F 30 °F (2003)
Degree Days  
Heating Degree Days 24    
Moisture  
Dew Point 31 °F    
Average Humidity 70    
Maximum Humidity 87    
Minimum Humidity 40    
Precipitation  
Precipitation 0.00 in 0.09 in - ()
Sea Level Pressure  
Sea Level Pressure 29.78 in    
Wind  
Wind Speed 9 mph ()    
Max Wind Speed 21 mph    
Max Gust Speed 22 mph    
Visibility 14.8 miles    
Events Rain    
Averages and records for this station are not official NWS values.
T = Trace of Precipitation, MM = Missing Value Source: Averaged Metar Reports

Daily Weather History Graph

Daily Weather History Graph

Search for Another Location

Airport:

Trip Planner

Search our weather history database for the weather conditions in past years. The results will help you decide how hot, cold, wet, or windy it might be!

Date:

Astronomy

Oct. 23, 2013 Rise Set
Actual Time 7:43 AM EDT 6:21 PM EDT
Civil Twilight 7:13 AM EDT 6:51 PM EDT
Nautical Twilight 6:40 AM EDT 7:24 PM EDT
Astronomical Twilight 6:06 AM EDT 7:57 PM EDT
Moon 9:46 PM EDT (10/23) 12:03 PM EDT (10/23)
Length of Visible Light 11h 37m
Length of Day
10h 38m
Waning Gibbous, 79% of the Moon is Illuminated
Oct 23
Waning Gibbous
Oct 26
Last Quarter
Nov 3
New
Nov 10
First Quarter
Nov 17
Full

Hourly Weather History & Observations

Time (EDT) Temp. Windchill Dew Point Humidity Pressure Visibility Wind Dir Wind Speed Gust Speed Precip Events Conditions
12:00 AM 39.2 °F 33.0 °F 33.8 °F 81% 29.83 in 15.0 mi West 9.2 mph - N/A   Mostly Cloudy
1:00 AM 39.2 °F 33.0 °F 33.8 °F 81% 29.82 in 15.0 mi West 9.2 mph - N/A   Mostly Cloudy
2:00 AM 39.2 °F 32.5 °F 33.8 °F 81% 29.80 in 15.0 mi West 10.4 mph - N/A   Mostly Cloudy
3:00 AM 37.4 °F 33.8 °F 33.8 °F 87% 29.79 in 15.0 mi WNW 4.6 mph - N/A   Mostly Cloudy
4:00 AM 39.2 °F 33.6 °F 33.8 °F 81% 29.77 in 15.0 mi West 8.1 mph - N/A   Mostly Cloudy
4:57 AM 39.2 °F 34.2 °F 33.8 °F 81% 29.76 in 12.0 mi WNW 6.9 mph - N/A Rain Light Rain Showers
5:00 AM 39.2 °F 34.2 °F 35.6 °F 87% 29.76 in 12.0 mi WNW 6.9 mph - N/A Rain Light Rain Showers
5:39 AM 39.2 °F 33.6 °F 35.6 °F 87% 29.76 in 15.0 mi West 8.1 mph - N/A   Overcast
6:00 AM 39.2 °F 33.6 °F 35.6 °F 87% 29.76 in 15.0 mi West 8.1 mph - N/A   Overcast
7:00 AM 39.2 °F 32.5 °F 35.6 °F 87% 29.76 in 15.0 mi West 10.4 mph - N/A   Overcast
8:00 AM 39 °F - 35 °F 80% 29.77 in 15 mi West 9.2 mph - -   Partly Cloudy
8:00 AM 39.2 °F 33.0 °F 35.6 °F 87% 29.76 in 15.0 mi West 9.2 mph - N/A   Mostly Cloudy
9:00 AM 41.0 °F 36.4 °F 35.6 °F 81% 29.78 in 15.0 mi WNW 6.9 mph - N/A   Mostly Cloudy
10:00 AM 41.0 °F 35.8 °F 35.6 °F 81% 29.77 in 15.0 mi WNW 8.1 mph - N/A   Mostly Cloudy
11:00 AM 42.8 °F 40.1 °F 33.8 °F 70% 29.76 in 15.0 mi WNW 4.6 mph - N/A   Scattered Clouds
12:00 PM 46.4 °F 41.9 °F 32.0 °F 57% 29.76 in 15.0 mi NW 9.2 mph 18.4 mph N/A   Mostly Cloudy
1:00 PM 46.4 °F 42.4 °F 33.8 °F 62% 29.75 in 15.0 mi North 8.1 mph - N/A   Mostly Cloudy
2:00 PM 46 °F - 30 °F 40% 29.73 in 15 mi NNW 15.0 mph - -   Mostly Cloudy
2:00 PM 46.4 °F 40.1 °F 30.2 °F 53% 29.73 in 15.0 mi NNW 15.0 mph 21.9 mph N/A   Mostly Cloudy
3:00 PM 46.4 °F 39.8 °F 28.4 °F 50% 29.74 in 15.0 mi NW 16.1 mph - N/A   Mostly Cloudy
4:00 PM 48.2 °F - 24.8 °F 40% 29.74 in 15.0 mi NNW 20.7 mph - N/A   Mostly Cloudy
5:00 PM 46.4 °F 40.1 °F 26.6 °F 46% 29.76 in 15.0 mi NW 15.0 mph - N/A   Partly Cloudy
6:00 PM 42.8 °F 35.4 °F 23.0 °F 46% 29.78 in 15.0 mi NW 15.0 mph - N/A   Scattered Clouds
7:00 PM 41.0 °F 34.7 °F 24.8 °F 53% 29.80 in 15.0 mi NW 10.4 mph - N/A   Scattered Clouds
8:00 PM 40 °F - 28 °F 50% 29.82 in 15 mi WNW 12.7 mph - -   Scattered Clouds
8:00 PM 39.2 °F 31.2 °F 28.4 °F 65% 29.81 in 15.0 mi WNW 13.8 mph - N/A   Partly Cloudy
8:52 PM 35.6 °F 29.2 °F 28.4 °F 75% 29.81 in 15.0 mi West 8.1 mph - N/A   Partly Cloudy
9:00 PM 37.4 °F 30.8 °F 28.4 °F 70% 29.81 in 15.0 mi West 9.2 mph - N/A   Partly Cloudy
9:02 PM 35.6 °F 28.6 °F 28.4 °F 75% 29.81 in 15.0 mi West 9.2 mph - N/A   Partly Cloudy
10:00 PM 35.6 °F 28.6 °F 28.4 °F 75% 29.82 in 15.0 mi West 9.2 mph - N/A   Partly Cloudy
11:00 PM 33.8 °F 27.7 °F 28.4 °F 81% 29.83 in 15.0 mi WSW 6.9 mph - N/A   Partly Cloudy